EW6866 Weather Reports


time (UTC)temp
F
wind
direction
speed
knots
gust
knots
rain 1hr
in
rain 24hr
in
rain mn
in
humidity
%
barometer
mb
20260509181504 76 167 1.7 7.0 0.00 0.00 0.00 51 1010.0
20260509180005 76 192 1.7 8.7 0.00 0.00 0.00 52 1009.9
20260509174505 76 198 0.9 6.1 0.00 0.00 0.00 51 1010.0
20260509173025 76 226 1.7 7.8 0.00 0.00 0.00 51 1010.2
20260509171504 76 186 1.7 7.8 0.00 0.00 0.00 53 1010.6
20260509170004 75 177 0.9 7.8 0.00 0.00 0.00 55 1010.6
20260509164504 75 202 0.9 7.0 0.00 0.00 0.00 58 1010.4
20260509163004 75 197 1.7 7.8 0.00 0.00 0.00 59 1010.7
20260509161504 74 236 0.9 5.2 0.00 0.00 0.00 63 1010.5
20260509160005 74 213 0.9 4.3 0.00 0.00 0.00 69 1011.0
20260509154505 73 213 0.9 5.2 0.00 0.00 0.00 71 1011.8
20260509153004 72 211 0.9 3.5 0.00 0.00 0.00 74 1012.1
20260509151504 72 182 0.9 2.6 0.00 0.00 0.00 76 1012.5
20260509150004 72 170 0.9 3.5 0.00 0.00 0.00 78 1012.6
20260509144503 72 251 0.9 3.5 0.00 0.00 0.00 76 1012.8
20260509143003 72 247 0.9 3.5 0.00 0.00 0.00 77 1012.7
20260509141504 71 258 0.9 4.3 0.00 0.00 0.00 80 1012.6
20260509140005 70 268 0.9 4.3 0.00 0.00 0.00 81 1012.3
20260509134503 69 265 0.9 4.3 0.00 0.00 0.00 83 1012.5
20260509133004 67 174 0.0 1.7 0.00 0.00 0.00 86 1012.7
20260509131525 66 199 0.0 0.9 0.00 0.00 0.00 88 1012.9
20260509130025 64 241 0.0 2.6 0.00 0.00 0.00 90 1012.9
20260509124524 63 0 0.0 0.0 0.00 0.00 0.00 95 1013.0
20260509123005 62 0 0.0 0.0 0.00 0.00 0.00 96 1012.9
20260509121504 60 0 0.0 0.0 0.00 0.00 0.00 96 1013.0
20260509120004 59 0 0.0 0.0 0.00 0.00 0.00 96 1013.1
20260509114504 58 0 0.0 0.0 0.00 0.00 0.00 96 1013.0
20260509113004 57 0 0.0 0.0 0.00 0.00 0.00 96 1013.0
20260509111525 57 0 0.0 0.0 0.00 0.00 0.00 96 1013.0
20260509110004 56 0 0.0 0.0 0.00 0.00 0.00 96 1013.0
20260509104503 56 0 0.0 0.0 0.00 0.00 0.00 95 1013.3
20260509103025 56 0 0.0 0.0 0.00 0.00 0.00 95 1013.4
20260509101504 55 226 0.0 0.9 0.00 0.00 0.00 96 1013.1
20260509100005 55 0 0.0 0.0 0.00 0.00 0.00 95 1012.9
20260509094524 55 0 0.0 0.0 0.00 0.00 0.00 95 1012.9
20260509093003 56 0 0.0 0.0 0.00 0.00 0.00 95 1013.0
20260509091504 56 0 0.0 0.0 0.00 0.00 0.00 95 1013.5
20260509090004 55 0 0.0 0.0 0.00 0.00 0.00 95 1013.5
20260509084503 56 0 0.0 0.0 0.00 0.00 0.00 94 1013.5
20260509083003 56 0 0.0 0.0 0.00 0.00 0.00 94 1013.6
20260509081504 56 0 0.0 0.0 0.00 0.00 0.00 94 1013.6
20260509080004 56 0 0.0 0.0 0.00 0.00 0.00 93 1013.7
20260509074505 56 0 0.0 0.0 0.00 0.00 0.00 93 1013.7
20260509073005 56 0 0.0 0.0 0.00 0.00 0.00 92 1013.5
20260509071505 57 0 0.0 0.0 0.00 0.00 0.00 92 1013.6
20260509070006 57 0 0.0 0.0 0.00 0.00 0.00 91 1014.0
20260509064506 58 226 0.0 0.9 0.00 0.00 0.00 90 1014.1
20260509063005 59 0 0.0 0.0 0.00 0.00 0.00 89 1014.2
20260509061505 59 0 0.0 0.0 0.00 0.00 0.00 88 1014.4
20260509060006 60 0 0.0 0.0 0.00 0.00 0.00 88 1014.5
20260509054505 60 258 0.0 0.9 0.00 0.00 0.00 88 1014.7
20260509053006 60 0 0.0 0.0 0.00 0.00 0.00 87 1014.8
20260509051505 60 263 0.0 0.9 0.00 0.00 0.00 86 1014.9
20260509050005 60 268 0.0 0.9 0.00 0.00 0.00 85 1014.9
20260509044505 60 280 0.0 0.9 0.00 0.00 0.00 84 1014.9
20260509043005 60 279 0.0 1.7 0.00 0.00 0.00 83 1014.9
20260509041506 60 272 0.0 1.7 0.00 0.00 0.00 82 1015.1
20260509040006 60 278 0.0 0.9 0.00 0.00 0.00 82 1014.9
20260509034504 60 259 0.0 0.9 0.00 0.00 0.00 81 1015.1
20260509033005 61 273 0.0 1.7 0.00 0.00 0.00 80 1015.2
20260509031505 61 287 0.0 0.9 0.00 0.00 0.00 79 1015.3
20260509030006 61 263 0.0 2.6 0.00 0.00 0.00 78 1015.3
20260509024505 61 244 0.0 2.6 0.00 0.00 0.00 77 1015.3
20260509023005 61 291 0.0 1.7 0.00 0.00 0.00 76 1015.6
20260509021526 61 297 0.0 2.6 0.00 0.00 0.00 77 1015.6
20260509020005 61 283 0.0 0.9 0.00 0.00 0.00 76 1015.4
20260509014505 62 290 0.9 4.3 0.00 0.00 0.00 75 1015.3
20260509013005 62 302 0.9 5.2 0.00 0.00 0.00 75 1015.1
20260509011526 62 283 0.0 2.6 0.00 0.00 0.00 77 1014.8
20260509010005 62 276 0.0 3.5 0.00 0.00 0.00 77 1014.7
20260509004505 62 269 0.0 0.9 0.00 0.00 0.00 77 1014.5
20260509003004 62 277 0.0 0.9 0.00 0.00 0.00 76 1014.4
20260509001525 63 243 0.0 3.5 0.00 0.00 0.00 75 1014.3
20260509000026 62 112 0.0 0.9 0.00 0.00 0.00 77 1014.3
20260508234505 62 288 0.0 0.9 0.00 0.00 0.00 75 1014.0
20260508233005 63 54 0.0 0.9 0.00 0.00 0.00 73 1014.1
20260508231505 64 57 0.0 0.9 0.00 0.00 0.00 72 1013.9
20260508230005 64 0 0.0 0.0 0.00 0.00 0.00 67 1013.7
20260508224505 65 63 0.0 0.9 0.00 0.00 0.00 66 1013.7
20260508223004 65 69 0.0 1.7 0.00 0.00 0.00 67 1013.5
20260508221525 66 65 0.0 2.6 0.00 0.00 0.00 63 1013.6
20260508220006 66 54 0.0 0.9 0.00 0.00 0.00 62 1013.9
20260508214505 66 51 0.0 1.7 0.00 0.00 0.00 60 1014.2
20260508213026 66 46 0.0 0.9 0.00 0.00 0.00 61 1014.1
20260508211504 68 270 0.9 2.6 0.00 0.00 0.00 59 1013.9
20260508210025 69 280 0.0 2.6 0.00 0.01 0.00 53 1013.9
20260508204505 69 276 0.0 1.7 0.00 0.01 0.00 55 1013.9
20260508203004 69 293 0.0 2.6 0.00 0.02 0.00 53 1014.1
20260508201504 70 265 0.0 3.5 0.00 0.03 0.00 52 1014.2
20260508200004 69 335 0.0 0.9 0.00 0.04 0.00 58 1014.4
20260508194526 68 282 0.0 4.3 0.00 0.04 0.00 59 1014.7
20260508193005 68 272 0.0 7.8 0.00 0.04 0.00 62 1014.9
20260508191504 68 286 0.9 2.6 0.00 0.04 0.00 59 1015.2
20260508190004 68 311 0.9 3.5 0.00 0.05 0.00 58 1015.3
20260508184504 68 30 0.0 2.6 0.00 0.06 0.00 61 1015.5
20260508183005 68 279 0.9 4.3 0.00 0.06 0.00 64 1015.5